{"data":{"norad_id":56877,"intl_designator":"2023-083B","name":"STARLINK-6209","alt_names":[],"object_type":"PAYLOAD","status":"ACTIVE","operator":null,"country":"US","launch_date":"2023-06-12","launch_site_code":"AFETR","launch_vehicle":null,"mission":null,"orbit_class":"UNKNOWN","rcs_meters":null,"size_class":null,"mass_kg":null,"dimensions":null,"purposes":["comms"],"wikipedia_slug":null,"has_3d_model":false,"image_url":null,"decayed_at":null,"tle_current":{"epoch":"2026-05-24T23:46:42.942720Z","epoch_age_seconds":90038,"freshness":"FRESH","line1":"1 56877U 23083B   26144.99077480 -.00000115  00000+0  53405-5 0  9999","line2":"2 56877  43.0028  13.9454 0001087 237.1106 122.9641 15.27576548163302","mean_motion":15.27576548,"eccentricity":0.0001087,"inclination_deg":43.0028,"raan_deg":13.9454,"arg_perigee_deg":237.1106,"mean_anomaly_deg":122.9641,"bstar":5.3405e-6,"rev_number":16330,"period_min":94.266961736572,"perigee_km":482.31362053675,"apogee_km":483.80524464119,"semimajor_km":6861.196432589,"source":"CELESTRAK","updated_at":"2026-05-25T13:38:18.166607Z"}}}